TimeEDT,TemperatureF,Dew PointF,Humidity,Sea Level PressureIn,VisibilityMPH,Wind Direction,Wind SpeedMPH,Gust SpeedMPH,PrecipitationIn,Events,Conditions,WindDirDegrees,DateUTC
12:28 AM,57.2,55.4,94,29.85,7.0,Calm,Calm,-,N/A,Rain-Thunderstorm,Light Thunderstorms and Rain,0,2012-10-19 04:28:00
12:49 AM,57.2,55.4,94,29.83,5.0,East,4.6,-,N/A,Rain-Thunderstorm,Heavy Thunderstorms and Rain,90,2012-10-19 04:49:00
1:10 AM,57.2,55.4,94,29.82,10.0,ENE,3.5,-,N/A,Rain-Thunderstorm,Light Thunderstorms and Rain,70,2012-10-19 05:10:00
1:31 AM,57.2,55.4,94,29.82,10.0,Calm,Calm,-,N/A,Rain-Thunderstorm,Light Thunderstorms and Rain,0,2012-10-19 05:31:00
1:52 AM,57.2,55.4,94,29.83,4.0,Calm,Calm,-,N/A,Rain-Thunderstorm,Heavy Thunderstorms and Rain,0,2012-10-19 05:52:00
2:13 AM,57.2,55.4,94,29.82,7.0,Calm,Calm,-,N/A,Rain-Thunderstorm,Light Thunderstorms and Rain,0,2012-10-19 06:13:00
2:58 AM,57.2,55.4,94,29.80,10.0,Calm,Calm,-,N/A,,Overcast,0,2012-10-19 06:58:00
3:19 AM,57.2,55.4,94,29.79,7.0,Calm,Calm,-,N/A,,Overcast,0,2012-10-19 07:19:00
3:40 AM,57.2,55.4,94,29.78,4.0,NNE,3.5,-,N/A,,Overcast,20,2012-10-19 07:40:00
4:01 AM,57.2,55.4,94,29.78,5.0,Calm,Calm,-,N/A,,Overcast,0,2012-10-19 08:01:00
4:22 AM,57.2,55.4,94,29.77,5.0,Calm,Calm,-,N/A,,Overcast,0,2012-10-19 08:22:00
5:04 AM,57.2,55.4,94,29.77,7.0,Calm,Calm,-,N/A,,Overcast,0,2012-10-19 09:04:00
5:43 AM,57.2,55.4,94,29.77,7.0,Calm,Calm,-,N/A,,Overcast,0,2012-10-19 09:43:00
6:10 AM,57.2,55.4,94,29.76,7.0,Calm,Calm,-,N/A,,Overcast,0,2012-10-19 10:10:00
6:31 AM,57.2,55.4,94,29.76,7.0,Calm,Calm,-,N/A,,Overcast,0,2012-10-19 10:31:00
6:52 AM,57.2,55.4,94,29.77,7.0,Calm,Calm,-,N/A,,Overcast,0,2012-10-19 10:52:00
7:13 AM,57.2,55.4,94,29.76,7.0,Calm,Calm,-,N/A,,Overcast,0,2012-10-19 11:13:00
7:34 AM,59.0,55.4,88,29.77,5.0,West,3.5,-,N/A,,Overcast,270,2012-10-19 11:34:00
7:52 AM,57.2,55.4,94,29.78,2.0,Calm,Calm,-,N/A,Rain,Rain,0,2012-10-19 11:52:00
8:16 AM,57.2,55.4,94,29.77,2.0,Calm,Calm,-,N/A,Rain,Rain,0,2012-10-19 12:16:00
8:37 AM,57.2,55.4,94,29.77,2.5,Calm,Calm,-,N/A,Thunderstorm,Unknown,0,2012-10-19 12:37:00
8:58 AM,57.2,55.4,94,29.77,4.0,Calm,Calm,-,N/A,,Overcast,0,2012-10-19 12:58:00
9:19 AM,59.0,55.4,88,29.77,5.0,Calm,Calm,-,N/A,,Overcast,0,2012-10-19 13:19:00
9:40 AM,60.8,57.2,88,29.76,4.0,Calm,Calm,-,N/A,,Overcast,0,2012-10-19 13:40:00
10:04 AM,60.8,57.2,88,29.76,4.0,SSW,3.5,-,N/A,,Overcast,200,2012-10-19 14:04:00
10:25 AM,62.6,60.8,94,29.75,4.0,South,4.6,-,N/A,,Overcast,190,2012-10-19 14:25:00
10:46 AM,62.6,60.8,94,29.75,7.0,SSW,6.9,-,N/A,,Overcast,200,2012-10-19 14:46:00
11:07 AM,62.6,60.8,94,29.75,4.0,WSW,3.5,-,N/A,,Overcast,240,2012-10-19 15:07:00
11:28 AM,62.6,59.0,88,29.74,0.8,WSW,3.5,-,N/A,,Overcast,250,2012-10-19 15:28:00
11:49 AM,62.6,59.0,88,29.74,1.2,Calm,Calm,-,N/A,,Overcast,0,2012-10-19 15:49:00
12:10 PM,62.6,59.0,88,29.74,2.5,SW,3.5,-,N/A,,Overcast,220,2012-10-19 16:10:00
12:31 PM,62.6,60.8,94,29.72,2.0,WSW,3.5,-,N/A,,Overcast,240,2012-10-19 16:31:00
12:52 PM,64.4,62.6,94,29.72,7.0,South,4.6,-,N/A,,Overcast,190,2012-10-19 16:52:00
1:34 PM,66.2,62.6,88,29.71,7.0,WSW,6.9,-,N/A,,Mostly Cloudy,250,2012-10-19 17:34:00
1:55 PM,64.4,60.8,88,29.70,5.0,SW,4.6,-,N/A,,Mostly Cloudy,220,2012-10-19 17:55:00
2:40 PM,66.2,62.6,88,-9999,10.0,WSW,5.8,-,N/A,,Mostly Cloudy,240,2012-10-19 18:40:00
3:01 PM,68.0,62.6,83,29.68,10.0,West,12.7,-,N/A,,Mostly Cloudy,270,2012-10-19 19:01:00
3:22 PM,66.2,62.6,88,29.68,7.0,WSW,6.9,-,N/A,,Scattered Clouds,250,2012-10-19 19:22:00
3:43 PM,68.0,62.6,83,29.67,10.0,WSW,5.8,-,N/A,,Clear,240,2012-10-19 19:43:00
4:04 PM,66.2,62.6,88,29.67,10.0,WSW,6.9,-,N/A,,Scattered Clouds,250,2012-10-19 20:04:00
4:46 PM,68.0,62.6,83,29.65,10.0,West,4.6,-,N/A,,Scattered Clouds,270,2012-10-19 20:46:00
5:07 PM,68.0,62.6,83,29.65,10.0,WNW,3.5,-,N/A,,Scattered Clouds,300,2012-10-19 21:07:00
5:28 PM,68.0,62.6,83,29.64,10.0,WNW,4.6,-,N/A,,Scattered Clouds,290,2012-10-19 21:28:00
5:49 PM,66.2,62.6,88,29.64,10.0,WNW,3.5,-,N/A,,Mostly Cloudy,300,2012-10-19 21:49:00
6:10 PM,66.2,62.6,88,29.63,10.0,WNW,3.5,-,N/A,,Mostly Cloudy,300,2012-10-19 22:10:00
6:34 PM,64.4,62.6,94,29.64,7.0,SSE,3.5,-,N/A,Rain,Light Rain,150,2012-10-19 22:34:00
6:55 PM,64.4,62.6,94,29.64,10.0,South,3.5,-,N/A,Thunderstorm,Overcast,190,2012-10-19 22:55:00
7:16 PM,62.6,57.2,82,29.64,10.0,Calm,Calm,-,N/A,,Mostly Cloudy,0,2012-10-19 23:16:00
7:58 PM,60.8,57.2,88,29.65,10.0,Calm,Calm,-,N/A,,Scattered Clouds,0,2012-10-19 23:58:00
8:19 PM,60.8,57.2,88,29.65,10.0,Calm,Calm,-,N/A,,Mostly Cloudy,0,2012-10-20 00:19:00
8:40 PM,60.8,57.2,88,29.65,10.0,Calm,Calm,-,N/A,,Scattered Clouds,0,2012-10-20 00:40:00
9:01 PM,59.0,55.4,88,29.65,10.0,Calm,Calm,-,N/A,,Clear,0,2012-10-20 01:01:00
9:22 PM,59.0,55.4,88,29.66,10.0,SW,3.5,-,N/A,,Clear,230,2012-10-20 01:22:00
10:04 PM,57.2,55.4,94,29.67,10.0,Calm,Calm,-,N/A,,Clear,0,2012-10-20 02:04:00
10:25 PM,57.2,53.6,88,29.68,7.0,Calm,Calm,-,N/A,,Clear,0,2012-10-20 02:25:00
11:52 PM,53.6,51.8,94,29.69,7.0,Calm,Calm,-,N/A,,Clear,0,2012-10-20 03:52:00